| time (UTC) | temp F | wind direction | speed MPH | gust MPH | rain 1hr in | rain 24hr in | rain mn in | humidity % | barometer mb |
| 20260902062837 | 81 | 195 | 4.0 | 9.0 | 0.00 | 0.00 | 0.00 | 89 | 1012.1 |
| 20260902062601 | 80 | 172 | 4.0 | 9.0 | 0.00 | 0.00 | 0.00 | 89 | 1012.1 |
| 20260902061834 | 80 | 180 | 4.0 | 9.0 | 0.00 | 0.00 | 0.00 | 90 | 1012.1 |
| 20260902061333 | 80 | 189 | 4.0 | 8.0 | 0.00 | 0.00 | 0.00 | 90 | 1012.2 |
| 20260902060831 | 80 | 90 | 4.0 | 8.0 | 0.00 | 0.00 | 0.00 | 90 | 1012.2 |
| 20260902060328 | 80 | 179 | 4.0 | 9.0 | 0.00 | 0.00 | 0.00 | 90 | 1012.2 |
| 20260902055826 | 80 | 168 | 4.0 | 9.0 | 0.00 | 0.00 | 0.00 | 90 | 1012.3 |
| 20260902055325 | 80 | 174 | 5.0 | 9.0 | 0.00 | 0.00 | 0.00 | 90 | 1012.3 |
| 20260902054828 | 79 | 90 | 5.0 | 8.0 | 0.00 | 0.00 | 0.00 | 90 | 1012.3 |
| 20260902054327 | 79 | 164 | 5.0 | 9.0 | 0.00 | 0.00 | 0.00 | 90 | 1012.1 |
| 20260902053829 | 79 | 90 | 6.0 | 9.0 | 0.00 | 0.00 | 0.00 | 91 | 1012.1 |
| 20260902053317 | 78 | 167 | 6.0 | 8.0 | 0.00 | 0.00 | 0.00 | 90 | 1012.1 |
| 20260902052811 | 78 | 164 | 6.0 | 8.0 | 0.00 | 0.00 | 0.00 | 90 | 1011.9 |
| 20260902052306 | 78 | 163 | 6.0 | 8.0 | 0.00 | 0.00 | 0.00 | 89 | 1011.9 |
| 20260902051753 | 78 | 162 | 5.0 | 8.0 | 0.00 | 0.00 | 0.00 | 89 | 1011.9 |
| 20260902051253 | 78 | 156 | 5.0 | 8.0 | 0.00 | 0.00 | 0.00 | 89 | 1012.2 |
| 20260902050754 | 78 | 153 | 4.0 | 7.0 | 0.00 | 0.00 | 0.00 | 89 | 1012.2 |
| 20260902050253 | 78 | 154 | 4.0 | 7.0 | 0.00 | 0.00 | 0.00 | 89 | 1012.2 |
| 20260902045752 | 78 | 166 | 4.0 | 5.0 | 0.00 | 0.00 | 0.00 | 89 | 1012.4 |
| 20260902045254 | 78 | 160 | 4.0 | 5.0 | 0.00 | 0.00 | 0.00 | 89 | 1012.4 |
| 20260902045015 | 78 | 157 | 4.0 | 5.0 | 0.00 | 0.00 | 0.00 | 89 | 1012.4 |
| 20260902044252 | 79 | 156 | 4.0 | 5.0 | 0.00 | 0.00 | 0.00 | 88 | 1012.4 |
| 20260902043751 | 79 | 148 | 3.0 | 5.0 | 0.00 | 0.00 | 0.00 | 88 | 1012.4 |
| 20260902043523 | 79 | 147 | 3.0 | 5.0 | 0.00 | 0.00 | 0.00 | 88 | 1012.4 |
| 20260902042748 | 79 | 151 | 2.0 | 5.0 | 0.00 | 0.00 | 0.00 | 88 | 1012.7 |
| 20260902042242 | 79 | 138 | 2.0 | 4.0 | 0.00 | 0.00 | 0.00 | 88 | 1012.7 |
| 20260902041732 | 79 | 137 | 3.0 | 4.0 | 0.00 | 0.00 | 0.00 | 87 | 1012.7 |
| 20260902041226 | 80 | 128 | 3.0 | 4.0 | 0.00 | 0.00 | 0.00 | 88 | 1012.8 |
| 20260902040718 | 80 | 127 | 3.0 | 3.0 | 0.00 | 0.00 | 0.00 | 88 | 1012.8 |
| 20260902040424 | 80 | 127 | 3.0 | 4.0 | 0.00 | 0.00 | 0.00 | 88 | 1012.8 |
| 20260902035702 | 80 | 127 | 3.0 | 4.0 | 0.00 | 0.00 | 0.00 | 88 | 1012.5 |
| 20260902035202 | 80 | 127 | 3.0 | 4.0 | 0.00 | 0.00 | 0.00 | 88 | 1012.5 |
| 20260902034702 | 80 | 127 | 3.0 | 4.0 | 0.00 | 0.00 | 0.00 | 88 | 1012.5 |
| 20260902034206 | 80 | 127 | 3.0 | 4.0 | 0.00 | 0.00 | 0.00 | 88 | 1012.4 |
| 20260902033701 | 80 | 128 | 2.0 | 4.0 | 0.00 | 0.00 | 0.00 | 88 | 1012.4 |
| 20260902033202 | 80 | 128 | 3.0 | 4.0 | 0.00 | 0.00 | 0.00 | 87 | 1012.4 |
| 20260902032704 | 80 | 128 | 3.0 | 4.0 | 0.00 | 0.00 | 0.00 | 87 | 1012.4 |
| 20260902032158 | 80 | 128 | 3.0 | 4.0 | 0.00 | 0.00 | 0.00 | 87 | 1012.4 |
| 20260902031700 | 80 | 128 | 3.0 | 4.0 | 0.00 | 0.00 | 0.00 | 87 | 1012.4 |
| 20260902031159 | 80 | 128 | 2.0 | 4.0 | 0.00 | 0.00 | 0.00 | 87 | 1012.2 |
| 20260902030657 | 80 | 128 | 1.0 | 4.0 | 0.00 | 0.00 | 0.00 | 87 | 1012.2 |
| 20260902030152 | 80 | 129 | 1.0 | 4.0 | 0.00 | 0.00 | 0.00 | 87 | 1012.2 |
| 20260902025646 | 81 | 130 | 2.0 | 4.0 | 0.00 | 0.00 | 0.00 | 86 | 1011.8 |
| 20260902025136 | 81 | 130 | 2.0 | 5.0 | 0.00 | 0.00 | 0.00 | 86 | 1011.8 |
| 20260902024631 | 81 | 130 | 2.0 | 5.0 | 0.00 | 0.00 | 0.00 | 85 | 1011.8 |
| 20260902024120 | 81 | 107 | 3.0 | 5.0 | 0.00 | 0.00 | 0.00 | 85 | 1011.6 |
| 20260902023610 | 82 | 107 | 2.0 | 5.0 | 0.00 | 0.00 | 0.00 | 85 | 1011.6 |
| 20260902023105 | 82 | 107 | 3.0 | 5.0 | 0.00 | 0.00 | 0.00 | 85 | 1011.6 |
| 20260902022553 | 82 | 107 | 4.0 | 5.0 | 0.00 | 0.00 | 0.00 | 85 | 1011.2 |
| 20260902022048 | 82 | 116 | 3.0 | 8.0 | 0.00 | 0.00 | 0.00 | 85 | 1011.2 |
| 20260902021537 | 82 | 120 | 4.0 | 8.0 | 0.00 | 0.00 | 0.00 | 85 | 1011.2 |
| 20260902021028 | 82 | 153 | 4.0 | 8.0 | 0.00 | 0.00 | 0.00 | 84 | 1010.9 |
| 20260902020517 | 82 | 155 | 3.0 | 7.0 | 0.00 | 0.00 | 0.00 | 84 | 1010.9 |
| 20260902020011 | 82 | 154 | 3.0 | 6.0 | 0.00 | 0.00 | 0.00 | 84 | 1010.8 |
| 20260902015501 | 82 | 145 | 4.0 | 6.0 | 0.00 | 0.00 | 0.00 | 84 | 1010.8 |
| 20260902015000 | 83 | 150 | 4.0 | 8.0 | 0.00 | 0.00 | 0.00 | 83 | 1010.8 |
| 20260902014458 | 83 | 157 | 5.0 | 9.0 | 0.00 | 0.00 | 0.00 | 83 | 1010.8 |
| 20260902013959 | 83 | 152 | 5.0 | 9.0 | 0.00 | 0.00 | 0.00 | 83 | 1010.8 |
| 20260902012953 | 83 | 164 | 5.0 | 9.0 | 0.00 | 0.00 | 0.00 | 83 | 1010.6 |
| 20260902012454 | 83 | 159 | 5.0 | 10.0 | 0.00 | 0.00 | 0.00 | 83 | 1010.6 |
| 20260902011954 | 83 | 174 | 6.0 | 10.0 | 0.00 | 0.00 | 0.00 | 83 | 1010.6 |
| 20260902011454 | 83 | 163 | 6.0 | 11.0 | 0.00 | 0.00 | 0.00 | 83 | 1010.5 |
| 20260902010953 | 83 | 166 | 6.0 | 11.0 | 0.00 | 0.00 | 0.00 | 83 | 1010.5 |
| 20260902010703 | 83 | 163 | 8.0 | 11.0 | 0.00 | 0.00 | 0.00 | 84 | 1010.5 |
| 20260902005942 | 83 | 165 | 8.0 | 11.0 | 0.00 | 0.00 | 0.00 | 83 | 1010.5 |
| 20260902005442 | 84 | 155 | 7.0 | 11.0 | 0.00 | 0.00 | 0.00 | 83 | 1010.5 |
| 20260902004942 | 84 | 167 | 6.0 | 11.0 | 0.00 | 0.00 | 0.00 | 82 | 1010.5 |
| 20260902004442 | 84 | 90 | 7.0 | 10.0 | 0.00 | 0.00 | 0.00 | 82 | 1010.4 |
| 20260902003941 | 84 | 166 | 7.0 | 10.0 | 0.00 | 0.00 | 0.00 | 81 | 1010.4 |
| 20260902003443 | 84 | 153 | 7.0 | 10.0 | 0.00 | 0.00 | 0.00 | 81 | 1010.4 |
| 20260902002941 | 85 | 90 | 7.0 | 12.0 | 0.00 | 0.00 | 0.00 | 80 | 1010.7 |
| 20260902002431 | 85 | 162 | 8.0 | 12.0 | 0.00 | 0.00 | 0.00 | 80 | 1010.7 |
| 20260902001921 | 85 | 169 | 8.0 | 12.0 | 0.00 | 0.00 | 0.00 | 80 | 1010.7 |
| 20260902001415 | 84 | 159 | 8.0 | 13.0 | 0.00 | 0.00 | 0.00 | 79 | 1010.4 |
| 20260902000905 | 84 | 166 | 7.0 | 13.0 | 0.00 | 0.00 | 0.00 | 80 | 1010.4 |
| 20260902000407 | 84 | 146 | 6.0 | 11.0 | 0.00 | 0.00 | 0.00 | 81 | 1010.4 |
| 20260901235902 | 84 | 141 | 7.0 | 11.0 | 0.00 | 0.00 | 0.00 | 82 | 1010.6 |
| 20260901235404 | 83 | 143 | 6.0 | 11.0 | 0.00 | 0.00 | 0.00 | 82 | 1010.6 |
| 20260901234903 | 83 | 141 | 6.0 | 11.0 | 0.00 | 0.00 | 0.00 | 82 | 1010.6 |
| 20260901234403 | 83 | 151 | 5.0 | 11.0 | 0.00 | 0.00 | 0.00 | 82 | 1010.7 |
| 20260901233909 | 83 | 142 | 6.0 | 10.0 | 0.00 | 0.00 | 0.00 | 82 | 1010.7 |
| 20260901233625 | 83 | 136 | 7.0 | 11.0 | 0.00 | 0.00 | 0.00 | 81 | 1010.7 |
| 20260901232902 | 83 | 112 | 6.0 | 11.0 | 0.00 | 0.00 | 0.00 | 81 | 1010.7 |
| 20260901232401 | 83 | 120 | 6.0 | 11.0 | 0.00 | 0.00 | 0.00 | 80 | 1010.7 |
| 20260901231903 | 83 | 90 | 5.0 | 11.0 | 0.00 | 0.00 | 0.00 | 80 | 1010.7 |
| 20260901231401 | 83 | 151 | 7.0 | 17.0 | 0.00 | 0.00 | 0.00 | 81 | 1010.3 |
| 20260901230851 | 83 | 151 | 10.0 | 17.0 | 0.00 | 0.00 | 0.00 | 81 | 1010.3 |
| 20260901230344 | 84 | 162 | 10.0 | 17.0 | 0.00 | 0.00 | 0.00 | 81 | 1010.3 |
| 20260901225834 | 84 | 155 | 10.0 | 22.0 | 0.00 | 0.00 | 0.00 | 82 | 1010.3 |
| 20260901225321 | 84 | 90 | 11.0 | 22.0 | 0.00 | 0.00 | 0.00 | 82 | 1010.3 |
| 20260901224815 | 85 | 140 | 12.0 | 21.0 | 0.00 | 0.00 | 0.00 | 81 | 1010.3 |
| 20260901224012 | 87 | 165 | 10.0 | 21.0 | 0.00 | 0.00 | 0.00 | 78 | 1010.3 |
| 20260901223248 | 87 | 90 | 9.0 | 17.0 | 0.00 | 0.00 | 0.00 | 76 | 1010.3 |
| 20260901222738 | 87 | 119 | 9.0 | 14.0 | 0.00 | 0.00 | 0.00 | 75 | 1010.0 |
| 20260901222452 | 87 | 138 | 8.0 | 13.0 | 0.00 | 0.00 | 0.00 | 75 | 1010.0 |
| 20260901221723 | 87 | 139 | 8.0 | 13.0 | 0.00 | 0.00 | 0.00 | 76 | 1010.0 |
| 20260901221212 | 87 | 146 | 9.0 | 18.0 | 0.00 | 0.00 | 0.00 | 77 | 1010.1 |
| 20260901220706 | 88 | 110 | 11.0 | 18.0 | 0.00 | 0.00 | 0.00 | 77 | 1010.1 |
| 20260901220157 | 89 | 117 | 12.0 | 19.0 | 0.00 | 0.00 | 0.00 | 76 | 1010.1 |
| 20260901215651 | 90 | 110 | 10.0 | 19.0 | 0.00 | 0.00 | 0.00 | 75 | 1010.0 |
| 20260901215418 | 92 | 130 | 6.0 | 17.0 | 0.00 | 0.00 | 0.00 | 69 | 1010.0 |
| 20260901214647 | 95 | 90 | 4.0 | 14.0 | 0.00 | 0.00 | 0.00 | 62 | 1010.0 |
| 20260901214411 | 96 | 80 | 7.0 | 14.0 | 0.00 | 0.00 | 0.00 | 58 | 1009.8 |
| 20260901213915 | 98 | 104 | 7.0 | 14.0 | 0.00 | 0.00 | 0.00 | 57 | 1009.8 |
| 20260901213147 | 98 | 90 | 7.0 | 12.0 | 0.00 | 0.00 | 0.00 | 54 | 1009.8 |
| 20260901212916 | 99 | 85 | 5.0 | 12.0 | 0.00 | 0.00 | 0.00 | 55 | 1009.9 |
| 20260901212147 | 99 | 114 | 4.0 | 11.0 | 0.00 | 0.00 | 0.00 | 53 | 1009.9 |
| 20260901211646 | 99 | 210 | 6.0 | 11.0 | 0.00 | 0.00 | 0.00 | 54 | 1009.9 |
| 20260901211149 | 98 | 178 | 6.0 | 11.0 | 0.00 | 0.00 | 0.00 | 54 | 1010.3 |
| 20260901210648 | 98 | 110 | 6.0 | 11.0 | 0.00 | 0.00 | 0.00 | 56 | 1010.3 |
| 20260901210401 | 98 | 159 | 5.0 | 13.0 | 0.00 | 0.00 | 0.00 | 55 | 1010.3 |
| 20260901205625 | 98 | 128 | 6.0 | 13.0 | 0.00 | 0.00 | 0.00 | 54 | 1010.6 |
| 20260901205112 | 97 | 225 | 6.0 | 14.0 | 0.00 | 0.00 | 0.00 | 57 | 1010.6 |
| 20260901204556 | 97 | 161 | 6.0 | 14.0 | 0.00 | 0.00 | 0.00 | 56 | 1010.6 |
| 20260901204044 | 97 | 168 | 4.0 | 11.0 | 0.00 | 0.00 | 0.00 | 57 | 1010.7 |
| 20260901203542 | 97 | 197 | 4.0 | 7.0 | 0.00 | 0.00 | 0.00 | 53 | 1010.7 |
| 20260901203044 | 97 | 205 | 3.0 | 5.0 | 0.00 | 0.00 | 0.00 | 55 | 1010.7 |
| 20260901202542 | 97 | 232 | 3.0 | 5.0 | 0.00 | 0.00 | 0.00 | 53 | 1010.8 |
| 20260901202306 | 97 | 263 | 3.0 | 8.0 | 0.00 | 0.00 | 0.00 | 53 | 1010.8 |
| 20260901201543 | 97 | 236 | 4.0 | 8.0 | 0.00 | 0.00 | 0.00 | 55 | 1010.8 |
| 20260901201048 | 97 | 218 | 5.0 | 8.0 | 0.00 | 0.00 | 0.00 | 58 | 1010.8 |
| 20260901200540 | 97 | 218 | 4.0 | 8.0 | 0.00 | 0.00 | 0.00 | 58 | 1010.8 |
| 20260901200030 | 96 | 238 | 3.0 | 6.0 | 0.00 | 0.00 | 0.00 | 55 | 1010.8 |
| 20260901195524 | 96 | 217 | 3.0 | 6.0 | 0.00 | 0.00 | 0.00 | 58 | 1011.0 |
| 20260901195018 | 97 | 227 | 4.0 | 8.0 | 0.00 | 0.00 | 0.00 | 58 | 1011.0 |
| 20260901194510 | 97 | 236 | 4.0 | 8.0 | 0.00 | 0.00 | 0.00 | 56 | 1011.0 |
| 20260901194008 | 97 | 289 | 4.0 | 8.0 | 0.00 | 0.00 | 0.00 | 56 | 1011.3 |
| 20260901193731 | 97 | 226 | 3.0 | 8.0 | 0.00 | 0.00 | 0.00 | 54 | 1011.3 |
| 20260901193006 | 97 | 270 | 2.0 | 7.0 | 0.00 | 0.00 | 0.00 | 54 | 1011.3 |
| 20260901192505 | 96 | 240 | 3.0 | 7.0 | 0.00 | 0.00 | 0.00 | 55 | 1011.6 |
| 20260901192004 | 96 | 221 | 4.0 | 7.0 | 0.00 | 0.00 | 0.00 | 54 | 1011.6 |
| 20260901191505 | 96 | 253 | 5.0 | 7.0 | 0.00 | 0.00 | 0.00 | 55 | 1011.6 |
| 20260901191006 | 96 | 211 | 4.0 | 7.0 | 0.00 | 0.00 | 0.00 | 56 | 1011.9 |
| 20260901190505 | 96 | 231 | 3.0 | 7.0 | 0.00 | 0.00 | 0.00 | 56 | 1011.9 |
| 20260901190005 | 96 | 327 | 3.0 | 6.0 | 0.00 | 0.00 | 0.00 | 56 | 1011.9 |
| 20260901185506 | 96 | 327 | 4.0 | 7.0 | 0.00 | 0.00 | 0.00 | 56 | 1012.1 |
| 20260901185004 | 95 | 278 | 5.0 | 8.0 | 0.00 | 0.00 | 0.00 | 56 | 1012.1 |
| 20260901184720 | 95 | 340 | 4.0 | 8.0 | 0.00 | 0.00 | 0.00 | 57 | 1012.4 |
| 20260901183947 | 95 | 9 | 4.0 | 8.0 | 0.00 | 0.00 | 0.00 | 59 | 1012.4 |
| 20260901183437 | 95 | 14 | 4.0 | 7.0 | 0.00 | 0.00 | 0.00 | 56 | 1012.4 |
| 20260901182927 | 95 | 336 | 4.0 | 7.0 | 0.00 | 0.00 | 0.00 | 56 | 1012.4 |
| 20260901182648 | 94 | 7 | 3.0 | 7.0 | 0.00 | 0.00 | 0.00 | 58 | 1012.4 |
| 20260901181911 | 94 | 351 | 3.0 | 7.0 | 0.00 | 0.00 | 0.00 | 57 | 1012.4 |
| 20260901181401 | 94 | 1 | 3.0 | 6.0 | 0.00 | 0.00 | 0.00 | 57 | 1012.7 |
| 20260901180855 | 94 | 322 | 4.0 | 7.0 | 0.00 | 0.00 | 0.00 | 59 | 1012.7 |
| 20260901180606 | 94 | 13 | 4.0 | 7.0 | 0.00 | 0.00 | 0.00 | 58 | 1012.7 |
| 20260901180121 | 93 | 358 | 4.0 | 8.0 | 0.00 | 0.00 | 0.00 | 60 | 1012.9 |
| 20260901175346 | 94 | 303 | 3.0 | 8.0 | 0.00 | 0.00 | 0.00 | 61 | 1012.9 |
| 20260901174848 | 93 | 330 | 3.0 | 6.0 | 0.00 | 0.00 | 0.00 | 62 | 1012.9 |
| 20260901174346 | 93 | 333 | 3.0 | 8.0 | 0.00 | 0.00 | 0.00 | 62 | 1013.0 |
| 20260901173849 | 92 | 355 | 4.0 | 8.0 | 0.00 | 0.00 | 0.00 | 66 | 1013.0 |
| 20260901173344 | 92 | 22 | 4.0 | 8.0 | 0.00 | 0.00 | 0.00 | 65 | 1013.0 |
| 20260901172848 | 92 | 4 | 4.0 | 8.0 | 0.00 | 0.00 | 0.00 | 65 | 1013.4 |
| 20260901172344 | 92 | 12 | 4.0 | 8.0 | 0.00 | 0.00 | 0.00 | 66 | 1013.4 |
| 20260901171846 | 92 | 28 | 4.0 | 8.0 | 0.00 | 0.00 | 0.00 | 68 | 1013.4 |
| 20260901171342 | 91 | 355 | 4.0 | 8.0 | 0.00 | 0.00 | 0.00 | 66 | 1013.6 |
| 20260901170857 | 91 | 357 | 4.0 | 3.0 | 0.00 | 0.00 | 0.00 | 69 | 1013.6 |
| 20260901165840 | 91 | 24 | 4.0 | 7.0 | 0.00 | 0.00 | 0.00 | 69 | 1013.9 |
| 20260901165337 | 91 | 342 | 4.0 | 7.0 | 0.00 | 0.00 | 0.00 | 71 | 1013.9 |
| 20260901165059 | 91 | 295 | 3.0 | 7.0 | 0.00 | 0.00 | 0.00 | 70 | 1013.9 |
| 20260901164335 | 90 | 329 | 3.0 | 7.0 | 0.00 | 0.00 | 0.00 | 71 | 1014.3 |
| 20260901164043 | 90 | 336 | 4.0 | 7.0 | 0.00 | 0.00 | 0.00 | 71 | 1014.3 |
| 20260901163315 | 90 | 306 | 4.0 | 7.0 | 0.00 | 0.00 | 0.00 | 72 | 1014.3 |
| 20260901162820 | 89 | 47 | 4.0 | 7.0 | 0.00 | 0.00 | 0.00 | 76 | 1014.5 |
| 20260901162315 | 89 | 11 | 4.0 | 7.0 | 0.00 | 0.00 | 0.00 | 75 | 1014.5 |
| 20260901161813 | 89 | 335 | 3.0 | 6.0 | 0.00 | 0.00 | 0.00 | 77 | 1014.5 |
| 20260901161321 | 88 | 13 | 3.0 | 6.0 | 0.00 | 0.00 | 0.00 | 77 | 1014.5 |
| 20260901160815 | 88 | 319 | 3.0 | 7.0 | 0.00 | 0.00 | 0.00 | 78 | 1014.5 |
| 20260901160320 | 88 | 301 | 2.0 | 7.0 | 0.00 | 0.00 | 0.00 | 77 | 1014.5 |
| 20260901155813 | 89 | 336 | 3.0 | 7.0 | 0.00 | 0.00 | 0.00 | 77 | 1014.5 |
| 20260901155301 | 89 | 308 | 2.0 | 8.0 | 0.00 | 0.00 | 0.00 | 79 | 1014.5 |
| 20260901154757 | 88 | 324 | 3.0 | 8.0 | 0.00 | 0.00 | 0.00 | 79 | 1014.5 |
| 20260901154254 | 88 | 341 | 4.0 | 8.0 | 0.00 | 0.00 | 0.00 | 79 | 1014.5 |
| 20260901153752 | 88 | 342 | 4.0 | 8.0 | 0.00 | 0.00 | 0.00 | 79 | 1014.5 |
| 20260901153252 | 89 | 348 | 4.0 | 7.0 | 0.00 | 0.00 | 0.00 | 79 | 1014.5 |
| 20260901153023 | 89 | 327 | 4.0 | 8.0 | 0.00 | 0.00 | 0.00 | 81 | 1014.3 |
| 20260901152251 | 88 | 345 | 4.0 | 8.0 | 0.00 | 0.00 | 0.00 | 80 | 1014.3 |
| 20260901151752 | 88 | 328 | 5.0 | 8.0 | 0.00 | 0.00 | 0.00 | 81 | 1014.3 |
| 20260901151251 | 88 | 355 | 5.0 | 8.0 | 0.00 | 0.00 | 0.00 | 82 | 1014.2 |
| 20260901150753 | 87 | 12 | 4.0 | 8.0 | 0.00 | 0.00 | 0.00 | 81 | 1014.2 |
| 20260901150251 | 87 | 353 | 3.0 | 6.0 | 0.00 | 0.00 | 0.00 | 83 | 1014.2 |
| 20260901150009 | 87 | 347 | 3.0 | 6.0 | 0.00 | 0.00 | 0.00 | 82 | 1014.1 |
| 20260901145253 | 86 | 328 | 3.0 | 6.0 | 0.00 | 0.00 | 0.00 | 84 | 1014.1 |
| 20260901145010 | 85 | 357 | 3.0 | 6.0 | 0.00 | 0.00 | 0.00 | 84 | 1014.1 |
| 20260901144246 | 85 | 347 | 3.0 | 5.0 | 0.00 | 0.00 | 0.00 | 85 | 1014.2 |
| 20260901143743 | 85 | 6 | 3.0 | 5.0 | 0.00 | 0.00 | 0.00 | 84 | 1014.2 |
| 20260901143509 | 85 | 358 | 3.0 | 6.0 | 0.00 | 0.00 | 0.00 | 84 | 1014.2 |
| 20260901143006 | 84 | 344 | 3.0 | 6.0 | 0.00 | 0.00 | 0.00 | 86 | 1014.3 |
| 20260901142241 | 84 | 351 | 2.0 | 5.0 | 0.00 | 0.00 | 0.00 | 86 | 1014.3 |
| 20260901141743 | 84 | 25 | 2.0 | 5.0 | 0.00 | 0.00 | 0.00 | 86 | 1014.3 |
| 20260901141243 | 83 | 10 | 3.0 | 5.0 | 0.00 | 0.00 | 0.00 | 86 | 1014.4 |
| 20260901140740 | 83 | 8 | 3.0 | 5.0 | 0.00 | 0.00 | 0.00 | 86 | 1014.4 |
| 20260901140240 | 83 | 34 | 3.0 | 5.0 | 0.00 | 0.00 | 0.00 | 87 | 1014.4 |
| 20260901135740 | 83 | 43 | 2.0 | 5.0 | 0.00 | 0.00 | 0.00 | 87 | 1014.2 |
| 20260901135239 | 82 | 29 | 3.0 | 5.0 | 0.00 | 0.00 | 0.00 | 88 | 1014.2 |
| 20260901134729 | 82 | 38 | 3.0 | 5.0 | 0.00 | 0.00 | 0.00 | 88 | 1014.2 |
| 20260901133721 | 81 | 24 | 3.0 | 5.0 | 0.00 | 0.00 | 0.00 | 88 | 1014.0 |
| 20260901133429 | 81 | 24 | 2.0 | 5.0 | 0.00 | 0.00 | 0.00 | 89 | 1014.0 |
| 20260901132701 | 80 | 30 | 2.0 | 4.0 | 0.00 | 0.00 | 0.00 | 89 | 1013.9 |
| 20260901132151 | 80 | 31 | 3.0 | 5.0 | 0.00 | 0.00 | 0.00 | 90 | 1013.9 |
| 20260901131652 | 79 | 26 | 3.0 | 5.0 | 0.00 | 0.00 | 0.00 | 90 | 1013.9 |
| 20260901130650 | 79 | 30 | 3.0 | 5.0 | 0.00 | 0.00 | 0.00 | 91 | 1013.6 |
| 20260901130150 | 78 | 20 | 3.0 | 5.0 | 0.00 | 0.00 | 0.00 | 91 | 1013.6 |
| 20260901125649 | 78 | 90 | 3.0 | 5.0 | 0.00 | 0.00 | 0.00 | 92 | 1013.5 |
| 20260901125147 | 77 | 13 | 3.0 | 5.0 | 0.00 | 0.00 | 0.00 | 92 | 1013.5 |
| 20260901124148 | 77 | 14 | 2.0 | 5.0 | 0.00 | 0.00 | 0.00 | 92 | 1013.5 |
| 20260901123649 | 76 | 23 | 3.0 | 5.0 | 0.00 | 0.00 | 0.00 | 91 | 1013.5 |
| 20260901123145 | 76 | 16 | 3.0 | 5.0 | 0.00 | 0.00 | 0.00 | 91 | 1013.5 |
| 20260901122646 | 76 | 20 | 3.0 | 5.0 | 0.00 | 0.00 | 0.00 | 92 | 1013.3 |
| 20260901122146 | 76 | 24 | 3.0 | 5.0 | 0.00 | 0.00 | 0.00 | 91 | 1013.3 |
| 20260901121643 | 76 | 20 | 3.0 | 5.0 | 0.00 | 0.00 | 0.00 | 92 | 1013.3 |
| 20260901121143 | 76 | 22 | 3.0 | 5.0 | 0.00 | 0.00 | 0.00 | 92 | 1013.1 |
| 20260901120643 | 76 | 26 | 3.0 | 6.0 | 0.00 | 0.00 | 0.00 | 92 | 1013.1 |
| 20260901120143 | 76 | 23 | 4.0 | 6.0 | 0.00 | 0.00 | 0.00 | 92 | 1013.1 |
| 20260901115644 | 76 | 21 | 4.0 | 6.0 | 0.00 | 0.00 | 0.00 | 91 | 1012.9 |
| 20260901115406 | 76 | 30 | 3.0 | 6.0 | 0.00 | 0.00 | 0.00 | 91 | 1012.9 |
| 20260901114642 | 77 | 43 | 3.0 | 6.0 | 0.00 | 0.00 | 0.00 | 91 | 1012.9 |
| 20260901114144 | 77 | 58 | 3.0 | 4.0 | 0.00 | 0.00 | 0.00 | 92 | 1012.9 |
| 20260901113143 | 76 | 59 | 3.0 | 4.0 | 0.00 | 0.00 | 0.00 | 91 | 1012.9 |
| 20260901112642 | 77 | 59 | 2.0 | 3.0 | 0.00 | 0.00 | 0.00 | 91 | 1012.7 |
| 20260901112143 | 77 | 59 | 2.0 | 3.0 | 0.00 | 0.00 | 0.00 | 92 | 1012.7 |
| 20260901111644 | 76 | 59 | 2.0 | 3.0 | 0.00 | 0.00 | 0.00 | 92 | 1012.7 |
| 20260901111141 | 76 | 59 | 1.0 | 3.0 | 0.00 | 0.00 | 0.00 | 92 | 1012.6 |
| 20260901110641 | 76 | 59 | 1.0 | 3.0 | 0.00 | 0.00 | 0.00 | 92 | 1012.6 |
| 20260901110400 | 76 | 59 | 1.0 | 3.0 | 0.00 | 0.00 | 0.00 | 91 | 1012.6 |
| 20260901105851 | 76 | 59 | 2.0 | 3.0 | 0.00 | 0.00 | 0.00 | 91 | 1012.7 |
| 20260901105121 | 76 | 59 | 2.0 | 3.0 | 0.00 | 0.00 | 0.00 | 91 | 1012.7 |
| 20260901104833 | 76 | 59 | 2.0 | 3.0 | 0.00 | 0.00 | 0.00 | 91 | 1012.7 |
| 20260901104058 | 76 | 59 | 1.0 | 3.0 | 0.00 | 0.00 | 0.00 | 91 | 1012.8 |
| 20260901103552 | 76 | 59 | 2.0 | 3.0 | 0.00 | 0.00 | 0.00 | 91 | 1012.8 |
| 20260901103042 | 76 | 59 | 2.0 | 3.0 | 0.00 | 0.00 | 0.00 | 91 | 1012.8 |
| 20260901102531 | 76 | 59 | 1.0 | 4.0 | 0.00 | 0.00 | 0.00 | 91 | 1012.8 |
| 20260901102025 | 76 | 59 | 1.0 | 4.0 | 0.00 | 0.00 | 0.00 | 91 | 1012.8 |
| 20260901101738 | 77 | 59 | 1.0 | 3.0 | 0.00 | 0.00 | 0.00 | 91 | 1012.7 |
| 20260901101003 | 77 | 60 | 0.0 | 1.0 | 0.00 | 0.00 | 0.00 | 91 | 1012.7 |
| 20260901100447 | 76 | 60 | 0.0 | 2.0 | 0.00 | 0.00 | 0.00 | 91 | 1012.7 |
| 20260901095938 | 76 | 60 | 1.0 | 2.0 | 0.00 | 0.00 | 0.00 | 90 | 1012.8 |
| 20260901095427 | 76 | 60 | 1.0 | 2.0 | 0.00 | 0.00 | 0.00 | 90 | 1012.8 |
| 20260901094923 | 76 | 60 | 1.0 | 3.0 | 0.00 | 0.00 | 0.00 | 90 | 1012.8 |
| 20260901094423 | 76 | 60 | 1.0 | 3.0 | 0.00 | 0.00 | 0.00 | 90 | 1012.9 |
| 20260901093923 | 76 | 60 | 1.0 | 3.0 | 0.00 | 0.00 | 0.00 | 90 | 1012.9 |
| 20260901093422 | 77 | 60 | 2.0 | 3.0 | 0.00 | 0.00 | 0.00 | 90 | 1012.9 |
| 20260901092924 | 77 | 60 | 2.0 | 3.0 | 0.00 | 0.00 | 0.00 | 90 | 1012.9 |
| 20260901092421 | 77 | 60 | 1.0 | 3.0 | 0.00 | 0.00 | 0.00 | 90 | 1012.9 |
| 20260901091920 | 77 | 61 | 0.0 | 2.0 | 0.00 | 0.00 | 0.00 | 90 | 1012.9 |
| 20260901091418 | 77 | 61 | 0.0 | 0.0 | 0.00 | 0.00 | 0.00 | 90 | 1012.9 |
| 20260901090915 | 77 | 61 | 0.0 | 0.0 | 0.00 | 0.00 | 0.00 | 90 | 1012.9 |
| 20260901090413 | 77 | 61 | 0.0 | 0.0 | 0.00 | 0.00 | 0.00 | 90 | 1012.9 |
| 20260901085912 | 77 | 61 | 0.0 | 0.0 | 0.00 | 0.00 | 0.00 | 90 | 1012.9 |
| 20260901085409 | 77 | 61 | 0.0 | 0.0 | 0.00 | 0.00 | 0.00 | 90 | 1012.9 |
| 20260901085114 | 77 | 61 | 0.0 | 0.0 | 0.00 | 0.00 | 0.00 | 89 | 1012.9 |
| 20260901084346 | 77 | 61 | 0.0 | 0.0 | 0.00 | 0.00 | 0.00 | 89 | 1012.9 |
| 20260901083839 | 77 | 61 | 0.0 | 0.0 | 0.00 | 0.00 | 0.00 | 89 | 1012.9 |
| 20260901083331 | 77 | 61 | 0.0 | 2.0 | 0.00 | 0.00 | 0.00 | 89 | 1012.9 |
| 20260901082831 | 77 | 61 | 0.0 | 2.0 | 0.00 | 0.00 | 0.00 | 89 | 1013.0 |
| 20260901082331 | 77 | 61 | 0.0 | 2.0 | 0.00 | 0.00 | 0.00 | 89 | 1013.0 |
| 20260901081831 | 77 | 61 | 1.0 | 2.0 | 0.00 | 0.00 | 0.00 | 89 | 1013.0 |
| 20260901081329 | 78 | 61 | 1.0 | 4.0 | 0.00 | 0.00 | 0.00 | 89 | 1012.9 |
| 20260901080831 | 78 | 61 | 2.0 | 4.0 | 0.00 | 0.00 | 0.00 | 88 | 1012.9 |
| 20260901080327 | 78 | 65 | 1.0 | 4.0 | 0.00 | 0.00 | 0.00 | 88 | 1012.9 |
| 20260901075824 | 78 | 169 | 0.0 | 4.0 | 0.00 | 0.00 | 0.00 | 89 | 1012.8 |
| 20260901075324 | 79 | 172 | 1.0 | 4.0 | 0.00 | 0.00 | 0.00 | 89 | 1012.8 |
| 20260901074825 | 79 | 172 | 2.0 | 5.0 | 0.00 | 0.00 | 0.00 | 89 | 1012.8 |
| 20260901074323 | 79 | 171 | 1.0 | 5.0 | 0.00 | 0.00 | 0.00 | 89 | 1012.8 |
| 20260901073811 | 79 | 168 | 1.0 | 3.0 | 0.00 | 0.00 | 0.00 | 90 | 1012.8 |
| 20260901073304 | 78 | 170 | 2.0 | 4.0 | 0.00 | 0.00 | 0.00 | 89 | 1012.8 |
| 20260901072803 | 78 | 166 | 2.0 | 4.0 | 0.00 | 0.00 | 0.00 | 89 | 1012.8 |
| 20260901072530 | 79 | 165 | 2.0 | 4.0 | 0.00 | 0.00 | 0.00 | 89 | 1012.8 |
| 20260901071804 | 79 | 165 | 2.0 | 5.0 | 0.00 | 0.00 | 0.00 | 89 | 1012.8 |
| 20260901071304 | 79 | 168 | 2.0 | 5.0 | 0.00 | 0.00 | 0.00 | 90 | 1012.9 |
| 20260901071029 | 79 | 172 | 2.0 | 5.0 | 0.00 | 0.00 | 0.00 | 90 | 1012.9 |
| 20260901070303 | 78 | 172 | 2.0 | 5.0 | 0.00 | 0.00 | 0.00 | 90 | 1012.9 |
| 20260901065751 | 78 | 171 | 3.0 | 6.0 | 0.00 | 0.00 | 0.00 | 90 | 1012.8 |
| 20260901065241 | 78 | 166 | 3.0 | 6.0 | 0.00 | 0.00 | 0.00 | 89 | 1012.8 |
| 20260901065001 | 78 | 162 | 3.0 | 5.0 | 0.00 | 0.00 | 0.00 | 89 | 1012.8 |
| 20260901064237 | 78 | 168 | 3.0 | 4.0 | 0.00 | 0.00 | 0.00 | 89 | 1013.0 |
| 20260901063736 | 78 | 154 | 3.0 | 4.0 | 0.00 | 0.00 | 0.00 | 88 | 1013.0 |
| 20260901063234 | 78 | 149 | 3.0 | 5.0 | 0.00 | 0.00 | 0.00 | 88 | 1013.0 |